Regional Weather Roundup
Issued by NWS Sterling, VA

Home | Current Version | Previous Version | Graphics & Text | Print | Product List | Glossary On
Versions: 1 2 3 4 5 6 7 8 9 10 11 12 13 14 15 16 17 18 19 20 21 22 23 24 25 26 27 28 29 30 31 32 33 34 35 36 37 38 39 40 41 42 43 44 45 46 47 48 49 50
000
ASUS41 KLWX 020510
RWRLWX

REGIONAL WEATHER ROUNDUP
NATIONAL WEATHER SERVICE BALTIMORE MD/WASHINGTON DC
1200 AM EST MON MAR 02 2015

Note: "FAIR" indicates few or no clouds below 12,000 feet
with no significant weather and/or obstructions to visibility.
 TC=TEMPERATURE CELSIUS

 * =Non NWS site. Station does not report precipitation (e.g. rain,
    snow, etc.), thunder, or fog.

DCZ001-MDZ009-015-VAZ040>042-051-053>054-020600-
WASHINGTON METRO

CITY           SKY/WX    TMP DP  RH WIND       PRES   REMARKS
WASHINGTON NAT FOG       34  30  85 S6        30.19F VSB 3/4
DULLES         FOG       31  30  96 W3        30.19F VSB 1/2
ANDREWS AFB    FOG       32  31  99 CALM      30.16F VSB 3/4
FT BELVOIR     CLOUDY    32  32 100 CALM      30.19S FOG
QUANTICO       CLOUDY    33  30  88 SW6       30.20F
COLLEGE PARK*  CLOUDY    32  32 100 CALM      30.18F
LEESBURG*      CLOUDY    32  32 100 CALM      30.18F FOG
MANASSAS*      CLOUDY    34  34 100 W3        30.19S
GAITHERSBURG*  CLOUDY    30  28  93 CALM      30.20F VSB 1/2

$$

MDZ006>007-011-014-020600-
BALTIMORE METRO

CITY           SKY/WX    TMP DP  RH WIND       PRES   REMARKS
BWI AIRPORT    FOG       30  30 100 W3        30.17F VSB 3/4
MARTIN STATE   CLOUDY    32  32 100 CALM      30.20F FOG
ANNAPOLIS      CLOUDY    31  30  96 MISG      30.17F FOG
FORT MEADE*    CLOUDY    32  32 100 CALM      30.20F

$$

MDZ012-015-019>023-020600-
MARYLAND EASTERN SHORE

CITY           SKY/WX    TMP DP  RH WIND       PRES   REMARKS
OCEAN CITY     CLOUDY    32  32 100 W3        30.20F FOG
SALISBURY      CLOUDY    35  32  88 W6        30.21F FOG
BAY BRIDGE AP*   N/A     32  32 100 S3        30.17F FOG
EASTON*        CLOUDY    33  33 100 SW5       30.21F

$$

MDZ017>025-020600-
SOUTHERN MARYLAND

CITY           SKY/WX    TMP DP  RH WIND       PRES   REMARKS
PATUXENT RIVER CLOUDY    32  30  92 S5        30.18F FOG
ST INIGOES     CLOUDY    32  29  88 S7        30.20F FOG
LEONARDTOWN*   CLOUDY    32  32 100 S3        30.19F VSB 1

$$

MDZ003>005-020600-
NORTH CENTRAL MARYLAND

CITY           SKY/WX    TMP DP  RH WIND       PRES   REMARKS
FREDERICK*     CLOUDY    32  28  86 CALM      30.20F
HAGERSTOWN APT CLOUDY    31  28  89 S3        30.14F FOG
WESTMINSTER*   CLOUDY    30  28  93 SW3       30.14F FOG

$$

MDZ501>502-020600-
WESTERN MARYLAND

CITY           SKY/WX    TMP DP  RH WIND       PRES   REMARKS
OAKLAND*       FOG       32 N/A N/A W10G20    30.08F VSB 3/4 WCI  24
CUMBERLAND*    CLOUDY    32  32 100 CALM      30.18F

$$

VAZ025>031-020600-
SHENANDOAH VALLEY

CITY           SKY/WX    TMP DP  RH WIND       PRES   REMARKS
WINCHESTER*    CLOUDY    32  30  93 CALM      30.15S FOG
FRONT ROYAL*   CLOUDY    30  28  93 CALM      30.14R
LURAY*         CLOUDY    43  37  81 SW8       30.12F
NEW MARKET*    CLOUDY    37  32  84 S3        30.13F
STAUNTON*      CLOUDY    42  35  77 S9        30.16S
WAYNESBORO*    CLOUDY    44  38  80 SW7G17    30.13F

$$

WVZ021-048>050-054>055-020600-
EASTERN WEST VIRGINIA PANHANDLE

CITY           SKY/WX    TMP DP  RH WIND       PRES   REMARKS
MARTINSBURG    CLOUDY    32  28  85 CALM      30.15F FOG
PETERSBURG*    NOT AVBL

$$

VAZ036>039-050-020600-
CENTRAL FOOTHILLS

CITY           SKY/WX    TMP DP  RH WIND       PRES   REMARKS
CHARLOTTESVILL CLOUDY    32  31  96 SW6       30.17F FOG
CULPEPER*      CLOUDY    34  34 100 W3        30.19R FOG
ORANGE*        CLOUDY    34  34 100 S8        30.19F FOG     WCI  27
GORDONSVILLE*  CLOUDY    32  31  98 SW8       30.17S FOG     WCI  25
WARRENTON*     CLOUDY    34  34 100 CALM      30.18R FOG

$$

VAZ055>057-020600-
NORTH AND CENTRAL PIEDMONT

CITY           SKY/WX    TMP DP  RH WIND       PRES   REMARKS
FREDERICKSBRG* CLOUDY    34  34 100 SW7       30.18F
STAFFORD*      CLOUDY    32  32 100 CALM      30.22F HAZE

$$

NCZ024-NYZ072-PAZ021-071-VAZ022-071-020600-
OTHER REGIONAL OBSERVATIONS

CITY           SKY/WX    TMP DP  RH WIND       PRES   REMARKS
NEW YORK CITY  CLOUDY    28  22  78 CALM      30.16F
PHILADELPHIA   CLOUDY    32  29  88 SW7       30.18F FOG
PITTSBURGH     FLURRIES  33  31  92 W8        30.16F WCI  26
ROANOKE        CLOUDY    36  29  75 CALM      30.23F
RICHMOND       FOG       33  32  96 S8        30.23F VSB 3/4 WCI  26
RALEIGH        FOG       35  32  88 SW8       30.29F VSB 1/4 WCI  29

$$

ANZ530>537-020600-
MARINE OBSERVATIONS

STATION/POSITION TIME  TEMP    WIND        PRES
                       AIR SEA DIR/SP/G
                 (UTC) (F)     (DEG/KT/KT) (MB)
THOMAS PT LIGHT  0400   31 31     CALM     1024.5
BALT KEY BRIDGE  0400   31        CALM     1023.6F
COVE POINT       0400   30        CALM     1023.5F
LEWISETTA        0400   32 32              1023.7F
SOLOMONS ISLAND  0400      32                N/A

$$




USA.gov is the U.S. government's official web portal to all federal, state and local government web resources and services.